Date,TemperatureHighF,TemperatureAvgF,TemperatureLowF,DewpointHighF,DewpointAvgF,DewpointLowF,HumidityHigh,HumidityAvg,HumidityLow,PressureMaxIn,PressureMinIn,WindSpeedMaxMPH,WindSpeedAvgMPH,GustSpeedMaxMPH,PrecipitationSumIn
2013-1-1,18.3,11.7,3.2,-1.0,-7.7,-14.2,45,40,38,17.72,17.72,7,1,9,0.00
2013-1-2,23.7,18.1,6.4,7.5,2.8,-11.2,57,51,43,17.72,17.72,6,0,8,0.00
2013-1-3,26.8,19.8,14.0,11.6,6.3,0.8,58,55,48,17.72,17.72,7,1,10,0.00
2013-1-4,33.1,25.6,15.3,11.4,7.2,-0.9,50,45,40,17.72,17.72,7,1,13,0.00
2013-1-5,32.9,19.3,6.1,22.5,5.2,-8.5,69,54,49,17.72,17.72,7,0,11,0.00
2013-1-6,29.1,20.3,6.4,22.2,5.2,-10.0,75,52,41,17.72,17.72,10,2,14,0.00
2013-1-7,33.4,22.1,6.3,14.1,5.1,-10.0,61,48,41,17.72,17.72,11,3,20,0.00
2013-1-8,35.1,28.9,17.1,29.0,16.5,3.5,79,60,51,17.72,17.72,6,1,9,0.00
2013-1-9,36.7,32.8,21.0,28.4,15.9,5.1,77,51,35,0.00,40.00,11,3,22,0.00
2013-1-10,35.4,25.7,15.1,25.8,13.1,2.2,69,58,51,0.00,40.00,5,0,7,0.00
2013-1-11,40.1,36.5,34.5,35.7,31.2,25.8,84,81,69,0.00,40.00,4,0,9,0.25
2013-1-12,40.3,38.6,36.7,37.4,35.2,32.3,90,87,79,0.00,40.00,9,1,13,0.00
2013-1-13,22.8,21.9,17.6,8.4,6.6,3.6,57,51,45,0.00,40.00,6,2,8,0.00
2013-1-14,21.6,13.7,7.0,3.8,-1.9,-5.8,55,49,41,0.00,40.00,7,1,14,0.00
2013-1-15,26.4,14.3,1.9,5.7,-2.5,-13.0,55,45,38,29.50,29.24,10,1,14,0.01
2013-1-16,29.3,23.1,16.7,14.3,6.5,-0.2,55,49,36,29.27,28.85,9,3,17,0.00
2013-1-17,19.2,8.8,0.3,0.9,-8.1,-15.1,44,43,42,29.56,29.27,11,2,14,0.00
2013-1-18,19.6,9.4,-2.2,6.9,-5.1,-17.2,57,49,43,29.59,29.00,3,0,5,0.00
2013-1-19,32.7,24.0,14.9,24.9,11.3,-5.5,73,58,38,29.06,28.71,14,1,22,0.00
2013-1-20,14.5,6.5,-7.2,-5.8,-12.2,-23.5,38,38,38,29.42,28.91,11,3,19,0.00
2013-1-21,2.3,-3.6,-11.7,-15.7,-20.5,-27.1,38,38,38,29.42,29.24,9,3,15,0.00
2013-1-22,1.9,-9.0,-16.6,-16.0,-24.9,-31.1,38,38,38,29.50,29.39,8,1,12,0.00
2013-1-23,10.8,-1.4,-14.1,-8.8,-18.7,-29.0,38,38,38,29.56,29.27,12,2,17,0.00
2013-1-24,13.3,5.5,-3.8,-6.8,-13.1,-20.7,38,38,38,29.86,29.56,7,1,11,0.00
2013-1-25,21.7,13.4,5.5,6.8,-3.3,-10.6,57,46,38,29.62,29.18,5,0,8,0.00
2013-1-26,26.2,19.2,10.8,7.8,3.9,-3.4,60,51,42,29.59,29.30,8,2,10,0.00
2013-1-27,34.2,27.6,19.9,24.5,12.4,4.3,74,53,42,29.59,29.24,6,1,11,0.00
2013-1-28,35.4,33.0,31.8,27.8,25.6,24.0,76,74,70,29.24,29.06,2,0,5,0.00
2013-1-29,38.5,34.8,32.4,35.5,30.6,24.7,89,85,73,29.18,28.77,6,0,9,0.09
2013-1-30,34.0,25.8,14.9,30.2,16.9,4.3,86,69,55,28.82,28.56,11,6,20,0.00
2013-1-31,15.3,11.9,8.1,4.3,-2.2,-8.5,62,52,39,29.18,28.62,9,4,15,0.00
2013-2-1,10.2,4.0,-5.1,-6.6,-11.7,-19.2,44,44,44,29.39,29.18,7,1,13,0.00
2013-2-2,14.7,3.2,-6.7,-3.9,-13.7,-23.5,44,41,36,29.33,29.24,8,1,10,0.00
2013-2-3,16.0,3.8,-6.7,-3.3,-15.2,-23.9,44,36,35,29.24,29.09,9,1,14,0.00
2013-2-4,14.4,1.6,-9.9,-6.5,-17.3,-27.0,37,36,35,29.24,29.15,8,1,10,0.00
2013-2-5,23.9,8.9,-9.0,4.2,-8.8,-25.4,56,41,37,29.27,28.94,8,1,12,0.00
2013-2-6,25.2,10.1,-9.9,6.3,-5.2,-21.8,56,47,37,29.44,29.27,6,0,8,0.00
2013-2-7,21.6,20.3,19.4,14.0,12.1,6.3,75,70,56,29.42,29.36,6,1,8,0.00
2013-2-8,24.6,17.4,-1.5,11.5,2.6,-15.8,67,51,39,29.62,29.42,10,2,13,0.00
2013-2-9,28.0,11.4,-8.1,12.4,-2.8,-21.4,61,50,45,29.62,29.36,7,1,10,0.00
2013-2-10,33.1,28.7,22.3,30.2,19.5,9.0,89,69,45,29.36,28.68,8,1,11,0.04
2013-2-11,36.5,32.0,24.1,34.4,25.0,8.6,92,77,46,29.06,28.56,8,0,13,0.00
2013-2-12,27.1,22.2,15.8,10.9,7.8,2.5,62,53,43,29.21,29.03,6,0,10,0.00
2013-2-13,35.6,24.6,11.7,21.7,13.3,0.1,70,62,52,29.06,28.88,4,0,6,0.00
2013-2-14,32.9,26.3,18.1,26.4,15.3,0.4,79,64,44,29.18,28.88,11,3,16,0.00
2013-2-15,21.9,16.9,3.2,4.2,-1.1,-10.4,54,44,36,29.39,29.18,8,2,11,0.00
2013-2-16,20.3,8.4,-3.1,-1.6,-8.6,-19.6,49,43,34,29.42,29.30,8,1,10,0.00
2013-2-17,20.5,4.6,-11.7,-1.4,-13.4,-26.7,44,39,36,29.42,29.24,6,0,9,0.00
2013-2-18,35.6,27.8,10.9,25.6,16.0,-7.7,78,61,40,29.24,28.68,7,1,10,0.00
2013-2-19,33.1,20.2,10.4,26.3,7.2,-6.0,78,57,43,29.21,28.59,11,2,21,0.00
2013-2-20,19.2,14.1,10.2,2.6,-2.6,-6.2,52,46,44,29.59,29.21,12,6,19,0.00
2013-2-21,25.2,19.8,14.2,10.9,7.6,-0.2,65,58,52,29.68,29.53,8,2,11,0.00
2013-2-22,23.5,21.7,18.5,17.2,14.2,8.4,78,72,64,29.53,29.06,7,2,10,0.00
2013-2-23,31.8,23.7,12.4,21.4,14.0,4.2,73,66,55,29.06,29.00,6,0,8,0.00
2013-2-24,35.8,29.8,25.3,21.3,17.8,15.3,72,61,44,29.36,29.06,7,0,10,0.00
2013-2-25,37.2,30.8,25.9,20.2,16.4,14.1,64,55,42,29.39,29.33,4,0,8,0.00
2013-2-26,34.7,32.5,14.9,22.1,15.6,-1.5,67,49,42,29.33,29.12,8,3,13,0.00
2013-2-27,34.0,31.2,28.0,26.5,21.5,13.2,78,67,52,29.12,28.97,8,3,12,0.00
2013-2-28,32.0,28.2,23.7,25.6,14.2,5.2,77,56,42,29.42,29.06,11,5,19,0.00
2013-3-1,26.6,21.7,16.0,7.1,3.8,-1.0,55,46,34,29.53,29.39,10,4,15,0.00
2013-3-2,27.1,17.1,3.7,8.0,-0.5,-10.7,63,45,36,29.47,29.39,11,2,14,0.00
2013-3-3,27.9,14.3,-2.0,4.7,-4.3,-16.1,55,42,33,29.39,29.33,8,1,12,0.00
2013-3-4,32.2,17.2,0.3,8.3,-1.6,-15.6,59,42,34,29.44,29.36,4,0,7,0.00
2013-3-5,34.9,23.0,8.6,11.9,4.2,-7.1,62,44,32,29.42,29.30,8,1,13,0.00
2013-3-6,33.1,30.0,23.9,19.8,14.9,5.5,60,53,45,29.53,29.33,7,1,10,0.00
2013-3-7,31.5,21.4,8.8,9.5,3.0,-6.6,56,45,34,29.68,29.53,6,0,10,0.00
2013-3-8,34.7,18.3,1.2,16.1,2.0,-13.2,60,47,40,29.71,29.53,6,0,9,0.00
2013-3-9,36.7,32.5,20.5,26.9,20.3,7.3,75,61,55,29.53,29.12,6,1,9,0.08
2013-3-10,37.9,34.5,23.9,32.0,27.1,5.7,81,74,45,29.18,29.03,6,1,8,0.00
2013-3-11,35.4,32.7,27.5,33.1,27.5,15.6,92,82,58,29.09,28.74,10,2,17,0.00
2013-3-12,28.0,23.9,18.1,15.8,8.4,2.1,61,51,42,29.15,28.85,9,2,13,0.00
2013-3-13,30.4,22.4,13.3,10.1,4.2,-3.6,64,46,28,29.47,29.15,11,3,17,0.00
2013-3-14,34.7,20.1,1.0,12.2,1.3,-13.8,57,43,33,29.47,29.18,6,1,8,0.04
2013-3-15,30.2,26.6,18.7,17.2,6.9,-0.6,58,43,33,29.24,29.12,10,3,14,0.00
2013-3-16,29.5,21.4,10.9,4.3,1.4,-3.2,57,42,32,29.33,29.18,8,1,11,0.00
2013-3-17,23.5,15.6,5.5,0.1,-3.9,-10.4,44,40,33,29.56,29.33,8,1,12,0.00
2013-3-18,34.9,24.3,8.1,19.6,8.4,-8.4,64,50,37,29.42,28.74,8,1,13,0.00
2013-3-19,30.0,25.2,19.8,17.8,8.0,-0.7,65,49,34,29.09,28.71,10,3,22,0.00
2013-3-20,26.1,19.2,7.2,3.2,-0.3,-7.9,49,42,33,29.21,29.09,10,2,13,0.00
2013-3-21,29.8,23.6,15.8,7.4,3.5,-2.3,53,42,33,29.24,29.15,10,3,15,0.00
2013-3-22,35.6,25.1,12.6,13.6,7.2,-3.0,58,46,37,29.33,29.15,9,1,11,0.05
2013-3-23,36.3,30.1,25.3,14.3,11.2,8.8,51,45,37,29.39,29.33,5,1,8,0.00
2013-3-24,35.6,30.1,25.2,13.2,9.9,7.9,53,43,33,29.39,29.18,9,2,13,0.00
2013-3-25,37.6,29.8,21.2,16.4,12.2,8.5,61,48,35,29.33,29.15,9,3,16,0.00
2013-3-26,40.5,33.3,26.1,26.3,16.6,6.6,73,52,32,29.44,29.33,9,2,14,0.04
2013-3-27,45.5,34.1,24.3,14.3,10.6,5.4,53,39,27,29.50,29.42,10,2,13,0.04
2013-3-28,47.7,34.5,21.9,15.4,9.1,3.1,45,35,24,29.53,29.47,6,1,9,0.00
2013-3-29,48.4,33.2,17.1,15.7,8.0,-0.1,52,36,22,29.53,29.44,6,0,8,0.00
2013-3-30,38.8,34.8,23.7,20.9,17.6,5.8,57,49,39,29.33,29.00,7,0,10,0.04
2013-3-31,46.2,36.0,25.2,28.9,17.7,3.8,69,49,29,29.09,28.85,13,3,21,0.04
2013-4-1,32.5,23.8,16.2,7.8,1.4,-5.8,47,38,28,29.33,29.09,11,3,15,0.00
2013-4-2,36.9,23.5,10.2,5.2,-2.1,-8.8,47,32,19,29.50,29.30,9,2,13,0.00
2013-4-3,37.6,26.1,12.2,9.0,2.3,-7.6,44,35,27,29.68,29.44,7,1,11,0.00
2013-4-4,51.1,36.7,25.3,18.7,12.4,6.5,46,37,27,29.44,29.18,8,2,11,0.00
2013-4-5,39.9,30.8,21.7,10.1,7.2,3.3,46,37,23,29.50,29.30,8,1,10,0.00
2013-4-6,40.8,33.5,28.2,26.6,17.5,8.1,69,52,41,29.44,28.77,8,1,12,0.17
2013-4-7,40.3,36.1,28.6,30.5,23.2,13.7,82,61,42,29.27,28.74,8,2,11,0.12
2013-4-8,37.6,33.0,27.1,29.8,24.1,14.1,77,70,57,29.30,29.09,5,0,6,0.21
2013-4-9,39.2,34.5,30.6,33.4,24.8,15.1,80,68,52,29.42,29.30,8,2,11,0.00
2013-4-10,43.0,34.8,30.2,17.9,13.4,6.6,56,42,29,29.42,29.36,8,3,12,0.00
2013-4-11,34.2,32.0,28.2,21.2,10.8,5.6,74,42,31,29.39,29.06,12,5,16,0.00
2013-4-12,34.0,29.8,26.4,22.5,20.5,18.3,75,68,60,29.06,28.91,8,2,17,0.00
2013-4-13,38.7,30.3,20.7,22.5,16.7,9.0,73,57,41,29.18,28.94,8,1,10,0.08
2013-4-14,44.1,31.1,16.5,26.2,16.0,4.9,74,54,33,29.30,29.12,7,1,10,0.08
2013-4-15,50.2,41.5,32.2,43.3,27.0,13.9,86,58,32,29.12,28.88,8,2,15,0.38
2013-4-16,47.3,38.6,30.2,20.4,17.6,12.9,57,43,30,29.59,29.12,8,2,13,0.00
2013-4-17,43.5,36.0,24.3,28.0,18.2,10.0,75,49,39,29.65,29.30,8,2,10,0.00
2013-4-18,39.2,37.6,35.4,35.7,31.7,19.5,89,80,48,29.30,28.59,6,1,8,0.33
2013-4-19,38.8,33.7,23.5,36.0,25.4,4.9,90,74,40,29.00,28.38,11,3,18,0.04
2013-4-20,36.5,27.7,19.4,8.4,6.0,3.5,53,40,30,29.65,29.00,10,3,13,0.00
2013-4-21,42.8,31.9,19.0,21.2,12.7,4.0,66,45,33,29.77,29.53,8,1,13,0.00
2013-4-22,39.7,37.5,33.6,34.1,29.1,21.6,85,72,58,29.53,29.36,4,0,9,0.37
2013-4-23,39.9,36.2,31.6,34.9,28.1,20.0,90,74,47,29.39,29.12,10,2,13,0.13
2013-4-24,47.1,36.3,27.0,23.1,18.0,13.5,73,50,28,29.24,29.18,7,1,11,0.00
2013-4-25,49.1,39.3,30.0,28.6,20.3,13.7,77,49,27,29.47,29.09,10,2,14,0.08
2013-4-26,52.9,39.1,28.6,35.3,21.7,12.9,76,50,36,29.50,29.36,7,1,11,0.04
2013-4-27,62.4,46.9,30.2,39.2,28.3,17.8,72,50,36,29.42,29.30,7,1,11,0.00
2013-4-28,59.4,42.4,34.3,35.8,26.5,20.3,66,53,36,29.30,29.09,5,0,6,0.00
2013-4-29,61.9,49.6,39.7,45.4,32.8,19.3,69,53,40,29.12,29.06,6,0,11,0.09
2013-4-30,61.7,54.4,44.4,54.1,40.7,34.3,91,62,45,29.09,29.00,9,2,17,0.03
2013-5-1,67.1,56.0,39.9,43.2,31.0,18.1,63,40,24,29.62,29.09,9,3,13,0.00
2013-5-2,49.3,40.1,34.2,28.2,23.3,18.2,78,52,37,29.62,29.53,12,6,16,0.26
2013-5-3,50.4,40.2,33.8,32.8,28.3,24.0,84,64,41,29.53,29.42,9,4,12,0.00
2013-5-4,68.7,50.6,37.4,37.9,31.5,24.2,78,52,27,29.42,29.36,6,2,10,0.04
2013-5-5,69.1,52.6,36.3,33.5,27.2,22.2,67,41,22,29.42,29.36,6,1,8,0.00
2013-5-6,70.7,54.7,35.8,33.0,26.5,19.9,62,36,20,29.39,29.30,6,1,9,0.00
2013-5-7,74.3,58.0,38.3,32.1,23.3,16.8,60,29,14,29.39,29.30,7,1,9,0.00
2013-5-8,79.9,59.9,38.7,34.3,24.6,17.0,49,28,15,29.33,29.27,6,1,9,0.00
2013-5-9,62.8,51.7,37.6,32.1,25.9,21.2,66,37,28,29.39,29.24,10,3,14,0.04
2013-5-10,51.3,41.4,34.5,27.6,23.5,13.9,72,51,30,29.36,29.21,8,2,13,0.04
2013-5-11,45.5,37.9,30.2,33.0,20.7,11.1,80,51,31,29.24,29.03,10,2,16,0.04
2013-5-12,39.7,35.2,32.9,25.4,18.3,12.4,71,51,33,29.33,29.12,10,5,20,0.00
2013-5-13,53.1,47.4,37.4,19.2,16.6,13.5,40,29,23,29.42,29.24,9,2,12,0.00
2013-5-14,60.4,49.5,40.3,28.6,25.1,19.0,52,39,28,29.24,28.82,8,1,11,0.00
2013-5-15,76.3,60.7,41.0,36.3,25.7,14.9,65,32,10,29.06,28.77,10,3,14,0.00
2013-5-16,68.2,56.0,42.3,28.4,24.4,19.0,41,30,20,29.39,29.03,8,2,10,0.00
2013-5-17,62.6,49.7,39.4,31.2,24.8,17.3,49,38,28,29.47,29.36,6,1,8,0.00
2013-5-18,62.6,53.5,43.7,37.1,31.1,20.0,55,43,34,29.44,29.27,6,1,10,0.04
2013-5-19,76.3,62.7,51.6,43.4,37.3,28.9,50,39,28,29.27,29.12,6,1,9,0.00
2013-5-20,66.7,60.2,54.1,54.6,47.6,40.9,78,64,48,29.12,29.00,6,1,8,0.38
2013-5-21,62.4,56.6,53.2,53.7,49.5,43.7,87,78,59,29.03,28.94,5,1,9,0.16
2013-5-22,56.7,52.3,48.7,49.9,44.1,37.7,85,74,58,29.15,28.97,8,2,12,0.13
2013-5-23,49.6,43.1,37.0,44.7,25.3,16.9,83,52,33,29.56,29.15,13,5,19,0.05
2013-5-24,59.9,45.7,30.0,27.1,21.4,16.2,67,40,25,29.68,29.56,7,1,9,0.00
2013-5-25,63.3,49.3,31.6,33.4,21.3,16.2,67,36,19,29.71,29.59,6,1,8,0.00
2013-5-26,67.1,51.6,32.9,28.7,20.4,13.9,52,31,18,29.62,29.50,6,1,8,0.00
2013-5-27,68.5,54.7,35.6,33.9,23.0,14.4,57,31,20,29.50,29.27,8,1,10,0.00
2013-5-28,57.0,54.9,53.2,42.2,33.3,23.6,62,45,29,29.27,29.03,6,0,8,0.00
2013-5-29,71.6,60.9,53.2,48.5,43.6,38.1,72,54,37,29.18,29.06,7,1,11,0.00
2013-5-30,77.7,66.2,54.5,51.0,46.1,38.2,69,50,32,29.15,29.09,7,1,12,0.00
2013-5-31,73.8,65.0,56.8,52.9,46.8,40.9,71,53,38,29.09,28.97,7,1,11,0.00
2013-6-1,77.0,60.7,47.5,52.8,45.5,38.9,74,59,36,29.00,28.91,8,1,12,0.74
2013-6-2,55.9,46.6,40.6,39.8,32.1,23.0,82,59,35,29.30,29.00,11,4,17,0.08
2013-6-3,64.6,49.4,32.9,37.4,25.1,19.5,75,42,24,29.39,29.27,9,1,10,0.00
2013-6-4,62.2,50.2,33.1,31.3,22.8,15.4,58,35,24,29.50,29.39,4,0,6,0.00
2013-6-5,58.8,52.8,49.1,37.1,31.9,25.7,51,45,37,29.50,29.36,4,0,9,0.00
2013-6-6,61.9,54.6,48.7,40.3,32.8,25.8,66,45,27,29.36,29.27,6,0,8,0.09
2013-6-7,73.0,59.2,44.1,34.2,28.3,22.9,53,33,16,29.30,29.21,6,1,10,0.00
2013-6-8,74.1,59.6,47.3,34.4,28.4,22.1,46,32,21,29.33,29.21,6,1,10,0.00
2013-6-9,71.6,59.6,42.3,38.9,32.2,19.9,55,36,29,29.36,29.24,7,1,9,0.00
2013-6-10,75.9,66.1,57.9,44.3,40.2,36.7,48,39,32,29.24,29.12,6,1,10,0.00
2013-6-11,61.9,59.0,57.7,48.3,42.7,38.1,63,55,45,29.18,29.12,0,0,2,0.00
2013-6-16,77.2,69.0,61.5,48.3,38.5,34.0,61,35,21,29.18,29.09,8,1,10,0.00
2013-6-17,63.5,58.5,48.6,38.9,35.9,25.9,51,43,35,29.36,29.12,7,1,8,0.00
2013-6-18,70.3,55.9,38.8,35.0,26.8,21.0,52,35,22,29.44,29.36,5,1,8,0.00
2013-6-19,72.9,58.5,39.4,39.2,28.3,18.2,55,33,23,29.44,29.33,6,1,11,0.00
2013-6-20,76.1,64.3,50.0,44.4,36.9,25.6,51,37,30,29.42,29.33,4,0,8,0.00
2013-6-21,68.5,63.3,59.5,54.7,48.4,40.3,72,59,39,29.42,29.18,5,0,8,0.16
2013-6-22,69.4,64.5,59.2,53.9,51.2,47.1,73,62,53,29.36,29.24,5,0,8,0.00
2013-6-23,74.5,66.7,59.9,60.5,51.9,46.8,75,60,43,29.30,29.12,6,1,9,0.00
2013-6-24,83.1,72.6,59.0,61.7,52.5,45.5,77,51,35,29.24,29.09,6,1,12,0.00
2013-6-25,84.9,76.2,69.4,60.2,51.4,44.2,64,43,26,29.15,29.09,5,0,9,0.00
2013-6-26,82.9,72.3,61.3,60.1,50.6,43.7,70,47,34,29.12,29.03,8,1,11,0.04
2013-6-27,77.9,68.0,62.4,62.2,56.1,48.5,79,67,44,29.09,28.97,7,0,8,0.75
2013-6-28,67.6,63.6,60.3,60.8,55.6,52.3,85,75,61,29.00,28.91,6,1,10,0.08
2013-6-29,69.4,62.5,55.9,55.8,45.1,30.2,80,56,34,29.15,28.97,8,2,13,0.00
2013-6-30,77.2,64.6,51.3,38.9,32.9,30.1,48,32,20,29.36,29.15,8,1,10,0.00
2013-7-1,78.3,63.8,49.8,43.1,33.3,22.6,47,33,22,29.47,29.33,7,0,8,0.00
2013-7-2,77.0,62.0,43.2,36.4,28.6,20.1,48,30,21,29.47,29.39,6,0,10,0.00
2013-7-3,77.7,65.6,54.1,39.9,32.8,26.6,47,30,21,29.42,29.30,5,0,8,0.00
2013-7-4,78.6,69.5,60.3,49.4,43.0,33.9,54,39,32,29.33,29.27,7,1,11,0.00
2013-7-5,83.5,72.1,59.4,53.4,45.4,39.5,62,39,29,29.33,29.24,6,1,10,0.00
2013-7-6,86.0,74.6,64.2,53.2,46.4,41.0,59,38,26,29.30,29.24,6,1,12,0.00
2013-7-7,82.4,73.3,66.2,57.9,50.1,40.8,56,44,37,29.24,29.18,4,0,6,0.00
2013-7-8,77.7,70.6,64.8,64.0,56.5,49.4,81,62,48,29.30,29.18,4,0,7,0.75
2013-7-9,72.5,66.2,60.6,63.7,57.1,50.0,85,73,60,29.30,28.97,5,0,8,0.16
2013-7-10,72.3,67.2,58.8,65.0,48.6,37.7,88,55,31,29.24,28.97,8,2,16,0.00
2013-7-11,78.4,65.1,52.0,47.4,40.6,36.1,66,43,24,29.42,29.24,6,1,8,0.00
2013-7-12,79.3,66.9,53.4,53.7,42.2,36.9,67,42,28,29.44,29.36,5,1,9,0.00
2013-7-13,80.4,69.3,56.8,52.2,44.3,38.1,63,42,31,29.44,29.36,6,1,10,0.00
2013-7-14,84.4,71.8,56.8,51.6,45.7,38.2,61,40,30,29.53,29.42,6,1,8,0.00
2013-7-15,86.7,75.5,62.8,58.0,49.2,42.0,61,41,29,29.59,29.50,5,1,8,0.00
2013-7-16,90.1,78.1,66.6,62.1,54.7,45.7,61,45,34,29.53,29.44,6,1,10,0.00
2013-7-17,91.6,82.0,71.2,63.5,54.1,47.8,66,40,24,29.50,29.42,6,1,11,0.00
2013-7-18,85.5,77.3,70.3,65.5,56.9,48.6,64,50,41,29.42,29.06,6,1,10,0.17
2013-7-19,85.6,76.1,64.4,68.6,53.9,40.2,74,48,30,29.06,28.91,15,2,23,0.21
2013-7-20,70.7,63.8,52.2,45.8,35.1,27.3,56,35,25,29.33,29.03,8,2,12,0.00
2013-7-21,67.1,56.9,44.2,39.5,34.3,25.1,59,43,34,29.33,29.21,3,0,5,0.00
2013-7-22,79.0,67.4,51.1,57.9,46.3,33.3,67,47,34,29.21,28.91,8,1,10,0.00
2013-7-23,70.5,61.0,51.6,49.3,36.3,27.0,59,41,26,29.27,28.97,10,3,17,0.00
2013-7-24,73.0,59.4,44.1,41.9,32.2,24.4,60,37,23,29.36,29.27,5,1,8,0.00
2013-7-25,77.5,65.5,53.2,52.3,40.3,31.3,70,41,27,29.30,29.21,7,1,12,0.79
2013-7-26,66.2,61.8,52.2,61.4,55.2,46.5,86,79,70,29.24,29.06,6,0,8,0.87
2013-7-27,59.7,54.1,49.3,47.3,44.4,41.6,84,71,53,29.18,29.09,6,1,9,0.00
2013-7-28,56.5,51.5,43.7,53.9,46.7,37.6,91,84,71,29.21,29.03,7,0,9,0.33
2013-7-29,70.2,59.4,49.6,55.1,48.3,40.9,93,70,37,29.42,29.21,6,1,9,0.00
2013-7-30,70.7,61.9,53.4,60.7,50.2,45.2,84,67,43,29.44,29.36,5,0,8,0.00
2013-7-31,75.4,67.3,60.8,59.3,52.4,45.1,77,60,37,29.36,29.15,7,1,12,0.00
2013-8-1,71.4,63.4,53.8,52.3,45.5,40.8,77,54,34,29.18,29.15,7,1,9,0.00
2013-8-2,74.1,63.4,53.6,54.6,43.8,35.5,79,52,26,29.36,29.06,8,1,11,0.09
2013-8-3,70.5,60.7,49.8,47.3,39.9,35.1,70,47,32,29.42,29.21,7,1,10,0.00
2013-8-4,69.1,59.1,47.7,46.5,37.5,33.3,74,46,28,29.50,29.36,4,0,6,0.04
2013-8-5,66.0,58.9,48.7,52.9,43.3,32.4,67,56,47,29.39,29.15,5,0,8,0.00
2013-8-6,73.6,66.8,59.7,59.3,53.2,48.1,80,62,48,29.15,29.06,4,0,6,0.00
2013-8-7,69.8,64.0,52.7,58.8,50.7,35.4,82,63,42,29.27,28.94,6,1,9,0.24
2013-8-8,72.0,59.6,45.3,51.6,40.9,33.4,77,52,30,29.33,29.27,6,0,8,0.00
2013-8-9,71.4,64.1,56.5,56.6,43.8,34.1,74,50,27,29.33,29.18,9,1,14,0.09
2013-8-10,72.1,60.3,47.1,47.6,39.1,31.6,70,47,32,29.42,29.33,5,0,8,0.00
2013-8-11,74.5,62.6,48.6,52.7,41.8,35.2,70,48,33,29.36,29.27,5,0,9,0.00
2013-8-12,73.6,62.2,49.3,51.8,42.8,33.6,67,50,36,29.30,29.18,8,1,13,0.00
2013-8-13,62.1,53.4,42.8,45.0,33.9,25.3,75,49,31,29.42,29.30,8,2,11,0.00
2013-8-14,67.6,55.1,40.8,41.2,32.4,25.5,69,44,28,29.44,29.36,6,0,8,0.00
2013-8-15,75.0,59.9,43.5,44.5,36.3,28.0,65,43,25,29.39,29.33,6,0,8,0.00
2013-8-16,77.4,63.0,47.5,47.1,38.6,29.9,62,42,29,29.47,29.36,5,0,8,0.00
2013-8-17,79.5,65.5,51.4,51.9,40.6,32.9,60,41,30,29.50,29.42,5,0,8,0.00
2013-8-18,78.3,66.7,54.3,50.5,42.0,34.5,57,41,31,29.44,29.33,5,0,6,0.00
2013-8-19,81.1,68.8,55.6,51.3,44.0,35.7,63,42,31,29.33,29.24,6,1,11,0.00
2013-8-20,83.7,72.5,62.8,56.0,48.7,42.0,63,44,31,29.30,29.24,6,1,10,0.00
2013-8-21,86.7,74.9,66.9,58.8,54.1,48.6,65,49,35,29.27,29.06,8,1,10,0.04
2013-8-22,77.2,68.6,57.9,55.3,43.2,32.2,69,43,22,29.42,29.24,5,1,8,0.04
2013-8-23,75.7,62.2,49.3,47.8,38.0,30.8,64,42,28,29.50,29.42,5,0,8,0.00
2013-8-24,78.6,65.8,53.2,53.5,42.1,34.4,66,43,24,29.53,29.39,6,1,11,0.00
2013-8-25,90.9,78.3,67.8,58.1,54.6,46.8,63,45,31,29.42,29.24,8,2,14,0.00
2013-8-26,82.8,76.8,69.4,62.3,56.6,52.2,69,50,40,29.33,29.18,6,1,9,0.17
2013-8-27,73.2,71.1,69.1,66.7,62.3,53.9,82,74,55,29.27,29.12,7,0,12,0.82
2013-8-28,82.2,73.1,66.2,64.7,59.3,53.0,85,65,40,29.33,29.15,4,0,7,0.05
2013-8-29,82.2,71.7,62.1,67.3,56.3,51.2,79,60,40,29.36,29.18,5,0,8,0.00
2013-8-30,74.3,69.9,63.0,68.6,58.4,50.6,88,68,50,29.21,29.06,9,2,15,0.21
2013-8-31,72.7,65.4,60.3,60.8,55.6,51.5,82,71,56,29.21,29.09,5,0,8,0.00
2013-9-1,73.9,65.9,57.7,67.9,56.8,46.3,89,73,44,29.12,28.97,6,1,10,0.29
2013-9-2,60.4,56.0,51.4,46.3,39.7,36.2,66,55,45,29.27,29.09,8,2,15,0.00
2013-9-3,71.6,59.0,46.8,51.4,41.6,38.6,83,55,31,29.30,29.18,6,1,11,0.00
2013-9-4,64.6,58.2,49.1,49.8,36.9,25.1,73,47,25,29.44,29.18,7,1,10,0.00
2013-9-5,65.1,53.0,40.3,41.8,32.4,24.1,65,46,35,29.59,29.44,5,0,8,0.00
2013-9-6,73.2,60.7,48.4,51.4,42.0,32.1,66,51,41,29.47,29.21,7,1,8,0.00
2013-9-7,79.7,68.8,58.3,65.6,54.0,46.2,79,60,45,29.33,29.12,7,1,10,0.21
2013-9-8,67.5,58.4,48.7,53.2,43.0,37.1,81,58,41,29.44,29.27,5,0,8,0.00
2013-9-9,68.9,62.8,53.6,61.4,52.9,37.8,79,70,55,29.30,28.97,4,0,10,0.00
2013-9-10,83.1,71.7,66.0,69.5,57.8,47.8,88,64,33,29.18,28.97,8,1,17,0.12
2013-9-11,77.2,67.6,60.4,61.4,52.0,45.4,80,59,36,29.21,29.15,8,1,10,0.00
2013-9-12,62.1,56.1,49.3,50.2,41.6,34.4,79,59,40,29.39,29.18,8,2,13,0.00
2013-9-13,58.5,50.3,40.6,39.2,31.2,24.3,68,49,34,29.47,29.36,7,1,10,0.00
2013-9-14,66.6,51.6,36.1,41.3,31.1,20.4,72,47,30,29.39,29.21,7,1,12,0.00
2013-9-15,59.0,54.2,40.5,49.4,39.1,26.5,71,57,48,29.47,29.18,8,1,13,0.08
2013-9-16,56.3,45.4,34.5,37.9,29.0,23.2,74,54,38,29.68,29.47,4,0,7,0.00
2013-9-17,62.6,48.0,32.4,46.4,31.7,18.8,75,54,42,29.56,29.36,5,1,10,0.00
2013-9-18,64.9,58.4,49.1,59.6,50.5,35.6,86,75,57,29.36,29.12,4,0,7,0.21
2013-9-19,72.5,66.1,62.2,68.8,62.0,56.3,95,87,76,29.15,28.94,6,1,10,0.25
2013-9-20,70.3,65.7,55.2,67.0,56.7,38.1,93,75,43,29.00,28.88,7,1,13,0.00
2013-9-21,55.2,49.9,42.8,43.6,33.5,25.8,79,54,39,29.15,28.97,8,1,10,0.00
2013-9-22,53.1,47.4,41.2,37.0,32.4,27.9,70,56,45,29.30,29.15,4,0,6,0.00
2013-9-23,57.6,48.0,38.3,43.3,32.4,24.9,74,55,43,29.39,29.27,5,0,8,0.00
2013-9-24,62.8,48.6,34.9,52.0,34.7,23.6,80,59,47,29.30,29.21,5,0,6,0.00
2013-9-25,63.3,52.9,40.3,53.2,39.1,30.1,84,61,44,29.27,29.21,4,0,6,0.00
2013-9-26,66.0,52.0,39.4,57.0,38.3,29.8,85,61,41,29.33,29.21,4,0,8,0.00
2013-9-27,68.7,55.8,45.3,58.9,43.1,32.3,86,63,47,29.39,29.27,5,0,8,0.00
2013-9-28,67.6,61.0,52.2,54.7,48.9,40.3,85,66,48,29.27,28.97,7,2,12,0.12
2013-9-29,61.9,54.1,43.7,50.5,42.9,35.6,84,67,51,29.21,29.03,5,0,8,0.04
2013-9-30,64.9,53.6,43.7,51.4,39.2,35.6,84,61,34,29.15,28.97,6,1,10,0.00
2013-10-1,74.3,66.6,53.8,46.8,39.7,31.1,42,37,32,29.03,28.85,7,1,11,0.00
2013-10-2,66.9,53.5,41.2,36.7,29.3,24.8,61,41,24,29.24,29.03,6,0,10,0.00
2013-10-3,63.1,55.8,47.3,47.8,39.4,28.6,73,55,45,29.18,29.06,4,0,8,0.09
2013-10-4,61.3,57.1,54.3,45.6,42.5,39.9,67,58,46,29.24,29.09,4,0,8,0.00
2013-10-5,57.0,55.0,53.1,55.6,49.4,43.1,97,82,60,29.24,28.94,7,1,9,0.91
2013-10-6,62.1,58.7,54.0,61.5,56.0,48.5,98,91,74,28.94,28.71,6,1,8,0.46
2013-10-7,56.5,49.6,38.7,49.2,39.0,28.1,92,70,37,29.12,28.71,9,2,13,0.00
2013-10-8,63.0,48.7,34.0,54.7,38.6,27.1,90,69,42,29.21,29.12,6,1,10,0.00
2013-10-9,66.4,57.0,45.9,55.4,46.2,40.7,90,69,42,29.24,29.15,5,1,9,0.00
2013-10-10,63.5,52.7,39.2,54.0,42.5,32.0,87,69,45,29.24,29.15,5,0,8,0.00
2013-10-11,63.1,52.7,41.9,57.8,43.3,35.1,92,72,50,29.18,29.03,5,1,8,0.00
2013-10-12,63.7,57.2,48.6,56.1,50.4,38.3,90,78,64,29.03,28.91,6,1,12,0.04
2013-10-13,54.0,45.8,37.4,45.7,34.7,27.1,85,66,47,29.42,29.03,6,0,9,0.00
2013-10-14,54.7,41.4,29.7,41.0,27.9,22.1,83,61,36,29.44,29.27,4,0,8,0.00
2013-10-15,56.1,51.2,39.9,52.9,43.7,28.0,89,76,62,29.27,28.71,7,1,10,0.00
2013-10-16,55.6,49.0,42.6,52.4,42.2,30.7,89,78,60,28.88,28.65,9,2,12,0.00
2013-10-17,48.9,39.7,29.5,38.5,29.1,21.9,84,66,51,28.88,28.74,4,0,6,0.00
2013-10-18,48.4,40.6,34.0,44.1,34.9,24.0,85,80,66,28.85,28.74,4,0,5,0.00
2013-10-19,47.5,39.1,31.6,39.6,32.3,27.4,88,77,51,28.82,28.65,6,0,8,0.04
2013-10-20,45.9,38.3,31.1,39.6,31.7,25.1,90,77,58,28.80,28.62,5,0,6,0.21
2013-10-21,40.6,36.9,28.9,36.3,26.2,13.7,89,67,41,28.74,28.59,8,2,14,0.00
2013-10-22,42.8,35.3,29.5,28.2,22.7,15.7,74,61,41,28.88,28.62,9,2,13,0.00
2013-10-23,40.3,32.5,25.5,27.9,18.5,13.9,79,58,39,28.88,28.80,8,1,12,0.00
2013-10-24,43.3,34.2,28.0,25.2,18.5,12.9,73,54,37,29.12,28.85,8,1,12,0.00
2013-10-25,44.1,35.7,26.6,27.8,19.8,16.8,76,54,36,29.18,28.62,8,2,13,0.00
2013-10-26,46.4,42.3,38.7,28.1,23.1,16.9,57,47,35,28.88,28.56,13,4,19,0.00
2013-10-28,38.8,33.1,23.5,13.6,10.1,6.2,47,38,33,29.42,29.36,7,1,10,0.00
2013-10-29,37.8,28.2,18.7,21.0,13.3,4.8,61,53,47,29.42,29.15,0,0,0,0.00
2013-10-30,50.4,42.0,33.8,44.8,33.4,21.0,81,72,59,29.15,28.74,4,0,6,0.00
2013-10-31,54.7,52.1,49.1,51.2,47.9,44.2,90,85,81,28.74,28.09,6,0,8,0.33
2013-11-1,49.1,44.1,39.0,46.6,41.2,34.3,96,90,79,28.68,28.06,6,2,10,0.42
2013-11-2,40.3,36.1,31.5,36.8,30.9,25.4,93,81,69,29.09,28.65,6,1,8,0.00
2013-11-3,43.0,34.6,24.3,38.6,29.8,19.9,91,82,77,29.24,29.09,6,1,9,0.00
2013-11-4,47.8,45.7,42.8,40.6,36.3,32.7,78,70,56,29.18,28.97,9,3,13,0.00
2013-11-5,49.5,43.4,33.8,40.6,34.0,28.0,85,70,46,29.18,28.91,6,1,10,0.04
2013-11-6,41.7,37.6,32.9,38.1,33.5,22.4,96,85,65,28.94,28.68,9,3,14,0.25
2013-11-7,36.9,33.3,29.7,23.4,20.6,17.0,66,60,48,29.03,28.94,6,2,10,0.00
2013-11-8,38.7,33.4,29.3,30.9,21.7,15.7,76,63,40,29.12,28.85,6,1,9,0.00
2013-11-9,43.2,40.2,37.8,41.0,33.0,23.0,92,76,54,28.85,28.53,7,3,14,0.29
2013-11-10,39.4,35.9,30.4,28.1,22.1,17.1,75,58,41,29.09,28.74,10,3,15,0.00
2013-11-11,37.2,28.4,23.7,27.7,11.2,3.2,76,49,33,29.33,28.88,12,4,19,0.00
2013-11-12,28.8,22.9,18.1,6.7,3.1,0.6,47,42,33,29.47,29.30,10,2,14,0.00
2013-11-13,38.8,27.7,15.8,17.7,9.7,1.3,56,47,39,29.30,28.74,8,2,15,0.00
2013-11-14,38.1,33.5,28.4,23.3,18.3,13.5,67,54,43,28.77,28.71,6,1,10,0.00
2013-11-15,45.3,32.5,24.8,37.8,23.9,17.3,82,70,64,28.80,28.71,5,0,8,0.00
2013-11-16,50.2,40.9,27.9,49.6,36.7,19.7,98,85,70,28.80,28.35,8,2,13,0.50
2013-11-17,52.7,50.7,48.0,52.2,50.1,47.3,98,98,97,28.38,28.09,5,0,10,0.16
2013-11-18,32.9,30.9,27.9,12.2,10.0,7.7,43,41,40,29.06,28.68,11,4,20,0.00
2013-11-19,32.9,25.8,17.4,24.2,10.7,4.6,70,53,43,29.24,29.06,5,0,6,0.00
2013-11-20,42.1,38.0,32.9,29.7,26.6,23.6,72,63,51,29.12,29.03,8,1,15,0.00
2013-11-21,40.6,37.7,31.6,33.9,29.5,24.6,80,72,64,29.15,29.00,8,1,12,0.00
2013-11-22,31.6,27.8,22.5,24.6,13.5,5.8,75,55,41,29.27,29.15,9,3,14,0.00
2013-11-23,24.6,14.8,8.4,6.2,-4.2,-7.7,45,41,34,29.44,29.18,12,5,19,0.00
2013-11-24,23.4,15.3,7.5,-0.2,-4.0,-8.4,45,41,34,29.42,28.91,9,2,13,0.00
2013-11-25,34.0,29.1,23.4,15.7,8.6,-0.4,52,41,34,28.91,28.68,9,4,14,0.00
2013-11-26,29.7,23.1,11.8,16.1,5.0,-6.5,58,45,36,29.00,28.74,11,3,15,0.00
2013-11-27,25.2,18.4,12.0,9.2,3.1,-6.4,63,51,40,29.03,28.94,9,2,12,0.00
2013-11-28,25.5,20.5,15.4,12.8,8.3,2.2,63,58,55,29.27,29.00,4,0,6,0.00
2013-11-29,28.6,19.8,6.6,15.9,7.6,-3.5,70,59,50,29.39,29.18,5,0,8,0.00
2013-11-30,33.6,30.7,27.7,18.0,16.0,14.4,60,54,49,29.18,28.85,6,0,11,0.00
2013-12-1,33.8,31.9,30.2,24.0,20.0,16.5,71,61,54,28.94,28.82,5,0,7,0.00
2013-12-2,34.5,28.9,19.9,26.9,17.6,10.1,77,62,53,28.82,28.68,5,0,8,0.00
2013-12-3,30.4,26.8,23.9,19.2,17.6,15.3,76,68,55,28.77,28.68,7,2,9,0.00
2013-12-4,37.9,30.1,24.4,36.4,25.8,18.0,94,84,76,28.71,28.15,7,2,9,0.79
2013-12-5,39.7,24.0,9.3,39.0,11.2,-7.3,97,60,39,28.88,28.15,10,4,17,0.04
2013-12-6,14.9,8.2,1.2,-3.5,-9.1,-14.0,44,42,39,29.15,28.88,7,2,11,0.00
2013-12-7,11.7,4.1,-1.1,-7.1,-13.3,-17.6,40,40,40,29.30,29.15,7,2,10,0.00
2013-12-8,12.2,4.4,-3.8,-6.9,-13.1,-19.8,40,40,40,29.27,28.77,4,0,8,0.00
2013-12-9,18.1,11.2,-3.5,5.6,-3.3,-18.3,65,51,40,28.77,28.53,8,2,17,0.00
2013-12-10,10.4,1.2,-7.1,-6.9,-14.4,-21.4,43,43,43,28.80,28.53,7,1,10,0.00
2013-12-11,8.2,0.2,-4.7,-8.6,-15.2,-19.3,43,43,43,29.06,28.80,8,1,12,0.00
2013-12-12,12.7,3.7,-7.1,-4.9,-12.4,-21.2,43,43,43,29.03,28.77,7,1,12,0.00
2013-12-13,14.2,10.1,4.5,-4.0,-7.6,-13.0,43,42,39,29.06,28.77,7,1,9,0.00
2013-12-14,13.8,9.7,3.2,-5.4,-8.7,-14.1,40,40,40,29.12,28.56,5,1,6,0.00
2013-12-15,18.3,12.3,6.1,-0.7,-6.2,-10.1,49,41,36,28.65,28.41,11,2,17,0.00
2013-12-16,19.9,8.0,-4.5,4.9,-6.6,-18.8,58,48,44,28.74,28.50,6,0,8,0.00
2013-12-17,24.3,15.8,2.1,10.7,2.4,-9.3,62,54,43,28.56,28.41,8,1,15,0.00
2013-12-18,20.3,15.1,8.1,2.9,-1.8,-6.8,48,46,43,28.59,28.29,7,1,10,0.00
2013-12-19,23.4,15.7,3.2,12.7,1.3,-10.8,64,52,45,28.65,28.29,10,2,13,0.00
2013-12-20,22.5,19.9,16.7,9.9,7.6,5.4,63,59,50,28.62,28.41,4,0,8,0.00
2013-12-21,25.3,20.7,14.7,12.7,9.3,4.1,66,61,54,28.53,28.38,4,0,5,0.00
2013-12-22,22.5,20.6,19.4,12.2,8.5,4.2,66,59,50,28.56,28.38,6,1,12,0.00
2013-12-23,21.4,17.7,12.6,10.3,5.3,-0.8,66,58,46,28.82,28.56,5,1,9,0.00
2013-12-24,17.8,10.0,3.4,1.0,-4.4,-11.4,54,50,44,28.91,28.74,4,0,7,0.00
2013-12-25,16.2,11.9,6.8,0.7,-3.8,-8.6,52,48,46,28.74,28.44,8,2,13,0.00
2013-12-26,16.3,8.3,-6.3,3.2,-4.8,-19.6,60,53,45,28.62,28.41,6,0,9,0.00
2013-12-27,27.1,9.4,-11.2,18.0,-2.6,-23.5,68,55,46,28.62,28.26,5,0,9,0.00
2013-12-28,35.6,30.8,27.0,25.4,21.7,17.8,73,69,60,28.35,28.15,5,0,8,0.00
2013-12-29,32.5,14.9,-1.7,25.2,-0.1,-16.8,74,50,42,28.50,28.15,12,5,14,0.00
2013-12-30,8.4,-1.7,-11.2,-8.5,-16.8,-24.6,43,43,43,28.59,28.41,4,0,6,0.00
2013-12-31,6.1,-3.5,-11.2,-10.4,-18.3,-24.6,43,43,43,28.68,28.41,7,1,11,0.00
2014-1-1,10.2,-0.1,-10.7,-7.0,-15.5,-24.2,43,43,43,28.77,28.68,8,1,8,0.00
2014-1-2,11.7,2.0,-4.9,-5.8,-13.7,-19.4,43,43,43,28.71,28.62,8,2,9,0.00